Regional Weather Roundup
Issued by NWS

Home | Current Version | Previous Version | Graphics & Text | Print | Product List | Glossary On
Versions: 1 2 3 4 5 6 7 8 9 10 11 12 13 14 15 16 17 18 19 20 21 22 23 24 25 26 27 28 29 30 31 32 33 34 35 36 37 38 39 40 41 42 43 44 45 46 47 48 49 50
892
ASUS45 KBOI 230910
RWRID

IDAHO REGIONAL WEATHER ROUNDUP
NATIONAL WEATHER SERVICE BOISE ID
300 AM MDT FRI JUN 23 2017

NOTE: "FAIR" INDICATES FEW OR NO CLOUDS BELOW 12000 FEET
WITH NO SIGNIFICANT WEATHER AND/OR OBSTRUCTIONS TO VISIBILITY

IDZ012-014-231000-
SOUTHWEST IDAHO


CITY           SKY/WX    TMP DP  RH WIND       PRES   REMARKS
BOISE          CLEAR     55  36  48 NW6       30.13R
CALDWELL       CLEAR     58  38  47 SW8       30.14R
MOUNTAIN HOME  CLEAR     59  33  37 NW14      30.12R
$$

IDZ016-017-231000-
SOUTHCENTRAL IDAHO


CITY           SKY/WX    TMP DP  RH WIND       PRES   REMARKS
BURLEY         CLEAR     54  37  52 CALM      30.16R
JEROME         CLEAR     53  33  46 SE7       30.15R
TWIN FALLS     CLEAR     58  27  30 S15       30.15R
$$

IDZ019>023-231000-
SOUTHEAST IDAHO


CITY           SKY/WX    TMP DP  RH WIND       PRES   REMARKS
IDAHO FALLS    CLEAR     50  37  61 N9        30.20R
POCATELLO      CLEAR     50  35  56 NW3       30.18R
REXBURG        CLEAR     47  37  68 NE8       30.21R
$$

IDZ006-010-011-018-031-032-231000-
CENTRAL IDAHO MOUNTAINS


CITY           SKY/WX    TMP DP  RH WIND       PRES   REMARKS
MCCALL         CLEAR     43  32  65 S3        30.25S
HAILEY         CLEAR     48  34  57 CALM      30.23R
STANLEY          N/A     35  27  72 S5        30.30R WCI  31
SALMON         CLEAR     45  30  57 CALM      30.24R
CHALLIS        CLEAR     45  26  47 NW3       30.25R
$$

IDZ002-004-006-007-026-231000-
NORTHERN IDAHO


CITY           SKY/WX    TMP DP  RH WIND       PRES   REMARKS
LEWISTON       CLEAR     56  36  47 CALM      30.20R
LOWELL           N/A     49  43  80 N3        30.26R
COEUR D`ALENE  CLEAR     50  42  74 CALM      30.22S
MULLAN PASS    CLEAR     47  27  45 NW6       30.30F
$$




USA.gov is the U.S. government's official web portal to all federal, state and local government web resources and services.